weather.gov     
National Weather Service

Regional Weather Roundup
NWS Homepage
This page is being discontinued on March 12, 2014.
The same data is available at this site. Please update your bookmarks.
Thank you, and we apologize for the inconvenience.
Please send an email to SR-SRH.Webmaster@noaa.gov with any concerns.


Current Version
Previous Version:    01  02  03  04  05  06  07  08  09  10  11  12  13  14  15  16  17  18  19  20  21  22  23  24  25  26  
[Printable]
469
ASUS44 KLCH 260410
RWRLCH
RWRLCH
REGIONAL WEATHER ROUNDUP
NATIONAL WEATHER SERVICE LAKE CHARLES LA
1000 PM CST TUE NOV 25 2014

Note: "fair" indicates few or no clouds below 12,000 feet with no
significant weather and/or obstructions to visibility.


ACROSS SOUTHEAST TEXAS

CITY           SKY/WX    TMP DP  RH WIND       PRES   REMARKS
BEAUMONT       CLEAR     44  40  85 CALM      30.25S
BEAUMONT CITY    N/A     40  38  91 CALM      30.25F
ORANGE         CLEAR     40  40 100 CALM      30.26F
JASPER         CLEAR     38  37  99 CALM      30.26S FOG
$$

ACROSS CENTRAL LOUISIANA

CITY           SKY/WX    TMP DP  RH WIND       PRES   REMARKS
LEESVILLE      CLEAR     39  38  96 S1        30.22F
FULLERTON        N/A     38  34  85 CALM      30.20F
ALEXANDRIA INT CLEAR     37  34  89 SE5       30.22F
ESLER FIELD    CLEAR     34  33  96 CALM      30.23F
DERIDDER         N/A     39  37  91 CALM      30.25S
OAKDALE        CLEAR     34  33  95 CALM      30.25S
OPELOUSAS        N/A     37  35  94 CALM      30.24F
$$

ACROSS SOUTHWEST AND SOUTH CENTRAL LOUISIANA

CITY           SKY/WX    TMP DP  RH WIND       PRES   REMARKS
SULPHUR        CLEAR     42  41  96 CALM      30.26S
LAKE CHARLES   CLEAR     40  38  93 CALM      30.26R
CHENNAULT INT  CLEAR     41  39  91 CALM      30.26S
CAMERON PHI    CLEAR     52  45  76 CALM      30.29R
DEQUINCY         N/A     37  37 100 CALM      30.25S
JENNINGS         N/A     39  37  92 CALM      30.25F
LAFAYETTE      CLEAR     41  38  89 CALM      30.25F
NEW IBERIA     CLEAR     39  35  86 CALM      30.26F
ABBEVILLE        N/A     38  37  95 CALM      30.26S
PATTERSON      CLEAR     45  36  70 N3        30.27
SALT POINT       N/A     52  37  56 N5        30.25S
$$

SELECTED SITES ACROSS THE REGION

CITY           SKY/WX    TMP DP  RH WIND       PRES   REMARKS
HOUSTON BUSH   CLEAR     52  36  54 S7        30.24S
HOUSTON HOBBY  CLEAR     50  39  66 S7        30.25R
GALVESTON      CLEAR     54  42  64 S6        30.28R
COLLEGE STAT   CLEAR     47  34  60 S5        30.21F
CONROE         CLEAR     39  36  89 CALM      30.23F
HUNTSVILLE     CLEAR     46  32  58 S6        30.20F
LUFKIN         CLEAR     44  37  76 SE3       30.21F
SHREVEPORT     PTCLDY    44  33  65 CALM      30.18S
MONROE         CLEAR     35  32  88 CALM      30.23F
NATCHEZ MS     CLEAR     34  28  80 S3        30.24S
BATON ROUGE    CLEAR     39  33  79 CALM      30.25S
N.O. INTL ARPT PTCLDY    49  33  54 NW14G20   30.23R
SLIDELL        MOCLDY    46  33  60 NW3       30.21R
$$

MARINE REPORTS

STATION/POSITION TIME  TEMP    WIND        PRES    VSBY  WAVE
                       AIR SEA DIR/SP/G                  HT/PER
                 (UTC) (F)     (DEG/KT/KT) (MB)    (MI)  (FT/S)
BUOY 30 S HIGH I 0400   60 61  180/  6/  6 1024.3F         1/ 7
SEA RIM ST PARK  0400   57     210/  6/  6 1025.0F
PORT ARTHUR      0400      59   CALM  /  2 1024.4S
SABINE PASS N    0400   52 59  210/  3/  5 1024.2S
TEXAS POINT      NOT AVBL
CALCASIEU PASS   0400   54 58  140/  2/  2   N/A
LK CHARLES BEACH 0400   44                 1024.6R
MARSH ISLAND     NOT AVBL
FRESH WATER LOCK 0400   46 59  330/  2/  2 1024.7R
AMERADA PASS     0400   48 53              1024.4R
$$




U.S. Dept. of Commerce
NOAA National Weather Service
1325 East West Highway
Silver Spring, MD 20910
E-mail: w-nws.webmaster@noaa.gov
Page last modified: May 16, 2007
NATIONAL WEATHER SERVICE: for Safety, for Work, for Fun - FOR LIFE